Temperature
23 20 21 21 21 23 23 23 23 23 24 22 22 21 21 21 21 21 21 21 21 21 21 21 22 22 21 21 21 21 21 21 21 20 20 20 19 19 18 18 17 17 17 16
20 21 22 22 22 22 22 23 23 23 23 23 22 22 21 20 21 21 21 20 20 20 21 21 21 21 22 22 22 22 22 21 21 20 20 19 19 18 18 17 17 16 16 16
22 22 23 24 24 23 23 23 24 23 22 21 22 21 21 20 20 20 20 20 20 21 22 22 22 22 22 22 22 22 22 21 20 20 19 19 18 18 17 17 16 16 16 16
22 23 24 25 25 24 23 24 23 23 21 20 21 19 20 19 18 18 19 19 20 21 22 22 23 23 23 23 22 22 21 21 20 20 19 19 18 17 17 16 16 16 15 15
23 24 25 25 25 25 24 23 22 21 20 19 19 19 18 18 19 18 18 19 20 21 22 22 23 23 23 22 22 21 21 20 20 20 19 18 18 17 16 16 15 15 15 15
23 24 24 25 24 24 23 20 19 16 16 18 20 19 18 17 19 19 19 19 20 21 22 22 23 22 22 22 22 21 21 20 20 19 19 18 17 16 16 15 15 15 15 15
22 23 23 24 24 23 21 19 17 18 16 17 18 18 17 19 19 19 19 21 21 21 21 22 22 22 22 22 22 21 21 20 20 19 19 18 17 16 15 15 15 14 14 14
22 21 23 24 24 22 21 19 18 18 17 17 17 18 18 19 20 20 20 20 20 20 20 21 21 21 21 22 22 21 21 20 20 19 19 18 17 16 15 14 14 14 14 14
21 21 23 23 23 22 20 19 18 16 17 16 17 18 18 18 18 18 17 17 17 17 18 19 20 20 21 21 21 21 21 20 20 19 18 17 16 16 15 14 14 14 13 13
21 21 21 21 22 22 21 17 15 16 17 17 17 17 16 15 14 14 13 13 13 15 16 17 18 18 19 19 20 20 20 19 19 18 18 17 16 15 15 14 14 14 13 13
21 20 20 19 20 20 20 18 15 14 15 15 16 16 14 12 12 12 12 12 12 12 13 15 15 16 17 17 18 18 18 18 18 17 17 16 16 15 15 14 14 13 13 13
18 17 18 19 19 19 20 19 16 17 16 14 14 14 13 12 12 11 11 11 11 12 12 13 14 15 15 16 16 16 16 16 16 16 16 16 15 15 14 14 14 13 13 13
17 17 17 18 18 19 19 19 17 15 14 13 13 14 12 12 11 11 11 11 11 11 11 12 13 13 13 14 14 15 15 15 15 16 16 16 15 15 14 14 13 13 13 13
17 16 17 18 18 18 19 18 17 14 14 13 14 13 11 10 10 10 10 10 10 10 10 10 11 11 11 12 12 13 13 13 14 14 15 15 15 15 15 14 13 13 13 12
17 17 17 17 18 18 18 17 16 15 14 14 13 11 10 10 10 10 10 10 10 10 10 9 9 10 10 10 11 11 11 12 12 12 13 14 14 14 14 14 13 13 12 12
16 18 18 18 19 18 17 16 15 13 12 12 12 10 9 10 10 9 9 9 9 9 9 9 9 9 9 9 10 10 10 10 10 11 11 12 13 14 14 14 13 13 12 12
15 16 16 16 17 18 15 13 13 11 10 10 10 9 9 9 9 8 8 8 9 9 9 9 9 9 9 9 9 9 9 9 10 10 10 11 11 12 13 13 13 13 12 12
14 14 13 14 17 17 12 12 12 10 10 10 10 9 9 8 8 8 9 9 9 10 9 9 9 9 9 9 9 9 9 9 9 9 9 10 10 11 11 11 12 12 12 12
13 14 13 13 15 14 13 13 12 11 10 9 9 9 9 9 8 9 10 10 9 9 9 9 9 9 9 9 9 9 9 9 9 9 9 9 9 9 10 10 11 11 11 11
12 12 13 14 16 15 11 11 11 12 10 9 9 8 9 8 7 8 9 9 9 9 9 9 9 9 9 9 9 9 9 9 9 9 9 9 8 8 9 9 10 10 11 11
13 12 12 13 14 11 9 10 11 10 9 10 10 9 9 8 8 8 8 8 9 8 8 8 8 8 8 8 8 8 8 8 9 9 9 8 8 8 8 9 9 10 10 10
12 12 11 11 12 11 9 10 9 9 11 10 10 9 9 8 8 8 8 8 8 8 8 8 7 7 7 7 7 7 8 8 8 8 8 8 8 8 8 8 8 9 9 10
9 9 9 9 9 9 10 10 11 11 10 10 9 9 8 8 8 8 8 7 7 7 7 7 7 7 7 7 7 7 7 7 8 8 8 8 8 8 7 7 8 8 8 9
8 8 8 8 8 10 11 11 11 10 9 9 9 8 8 7 7 7 7 7 7 7 7 6 6 6 6 6 6 6 6 7 7 7 8 8 8 7 7 7 7 7 8 8
8 7 7 7 8 9 10 11 10 9 9 8 8 8 7 7 7 6 6 6 6 6 6 6 5 5 5 5 5 5 6 6 6 7 7 7 7 7 7 7 7 7 7 8
8 8 8 7 9 9 9 9 9 8 8 8 7 7 7 6 6 6 6 5 5 5 5 5 4 4 4 4 4 4 5 5 5 6 6 7 7 7 7 6 7 7 7 8
Wind_Speed
4 3 3 6 7 4 2 2 3 4 4 5 5 3 1 2 4 6 7 7 6 6 4 4 6 8 8 8 9 9 8 7 5 3 2 3 4 4 3 4 5 6 7 7
5 4 7 5 4 3 3 1 1 4 5 3 2 2 2 2 4 6 8 8 7 6 4 5 6 7 8 9 9 9 8 6 5 3 2 2 2 2 3 3 5 6 7 7
3 6 5 0 2 4 2 3 2 3 5 5 3 5 4 3 4 3 3 6 7 8 9 8 8 8 8 9 9 7 7 5 5 4 1 1 1 2 3 3 4 4 6 8
4 6 2 2 1 3 1 4 3 1 2 4 3 3 6 4 5 3 3 6 9 8 8 8 9 9 10 9 6 4 4 4 3 4 3 3 2 3 4 3 4 7 7 8
5 4 2 1 3 2 4 2 3 2 2 2 4 1 8 4 4 5 6 8 9 10 11 11 11 11 9 6 4 3 3 3 3 4 5 4 4 4 3 4 6 7 7 8
5 4 2 2 2 2 3 6 6 6 5 2 2 1 6 4 6 6 6 9 11 11 10 11 9 7 6 3 3 4 5 4 4 5 6 6 5 5 4 5 6 6 7 7
7 8 5 1 3 4 6 7 6 7 6 4 4 2 8 8 7 7 9 10 9 7 7 8 8 8 7 6 6 6 6 6 6 6 6 6 6 5 5 6 6 7 7 7
2 7 6 3 1 4 2 8 6 3 4 6 4 4 7 5 5 4 4 4 5 6 6 7 8 7 7 7 6 6 7 7 7 7 6 5 5 4 4 5 5 6 6 7
4 6 6 4 4 3 4 3 6 6 3 2 6 7 8 10 12 10 10 11 11 11 11 10 9 8 7 6 4 4 5 6 6 7 6 6 6 6 6 5 5 5 6 6
7 5 6 7 5 5 2 8 6 5 4 4 6 4 6 13 14 13 14 14 14 14 14 14 14 13 12 10 9 7 5 5 5 5 6 6 7 7 6 5 6 6 6 6
4 4 6 7 5 4 3 4 5 4 4 5 5 4 5 6 7 9 11 11 12 13 14 14 14 13 13 13 12 11 9 7 6 6 7 7 7 7 6 6 6 6 5 5
4 5 2 6 6 3 1 4 6 2 3 5 4 3 5 6 7 9 10 11 11 11 11 11 12 13 15 15 13 12 10 9 8 8 8 9 9 7 8 8 7 6 5 5
7 5 3 8 7 5 1 2 4 4 3 5 5 3 5 7 9 9 9 10 10 11 12 12 13 14 14 13 13 12 11 10 10 9 8 9 10 10 10 10 8 6 5 5
6 5 6 7 8 5 5 4 1 6 4 5 6 4 7 10 10 10 10 9 9 10 11 12 12 12 11 11 11 12 12 11 12 11 10 10 12 12 12 10 8 7 5 4
4 4 7 7 6 2 2 5 6 2 1 4 1 5 5 8 9 10 11 11 13 15 15 14 13 12 12 12 12 12 12 12 12 13 13 12 12 11 11 10 9 7 6 4
3 2 2 4 3 1 2 7 5 6 5 4 5 4 4 7 8 11 13 14 15 16 16 16 15 14 14 14 14 13 12 12 11 11 13 14 13 11 11 11 9 8 7 5
2 4 2 4 5 2 4 7 4 5 4 4 2 3 8 11 13 13 15 15 14 14 14 14 14 14 13 14 13 13 13 12 11 11 11 12 13 12 11 11 10 10 9 7
4 4 3 2 3 1 1 3 6 6 4 4 1 6 10 12 12 13 15 15 15 14 13 14 15 14 14 14 15 13 13 12 12 12 11 11 11 12 11 10 11 11 8 8
3 5 4 2 1 3 3 2 4 3 2 1 5 10 11 11 10 10 12 11 13 13 14 15 15 16 15 16 16 14 14 13 13 13 12 11 10 11 11 10 12 11 9 9
7 5 5 2 2 2 2 8 11 4 3 4 7 12 14 12 12 11 10 12 14 16 16 16 16 16 15 16 14 13 14 14 15 14 13 11 10 10 11 11 11 10 10 11
7 7 5 3 2 3 4 9 7 2 7 11 13 14 14 12 15 16 15 16 17 18 18 18 17 16 15 15 13 14 14 15 16 14 13 12 11 10 10 10 9 10 12 12
3 4 4 4 3 2 5 5 3 7 11 13 14 14 16 17 18 19 18 17 16 17 18 17 16 17 16 14 14 15 16 17 15 13 13 13 11 10 10 8 9 9 12 14
4 1 1 1 2 5 5 6 9 10 13 14 13 15 16 18 20 20 19 18 18 18 19 16 16 18 15 14 13 16 17 16 14 13 13 12 11 10 8 8 9 7 10 12
4 3 3 1 3 6 9 10 10 11 13 14 15 16 16 20 22 22 20 19 18 18 18 17 17 18 17 15 14 15 15 14 13 13 13 12 10 10 8 7 6 5 7 11
2 3 2 3 6 9 9 9 12 13 13 15 16 16 16 20 23 23 22 20 19 18 17 16 17 19 19 16 15 15 14 12 12 13 12 11 10 10 9 8 6 6 7 10
1 2 1 4 8 7 12 12 12 13 14 16 19 19 15 17 22 23 22 20 19 19 18 19 19 20 19 17 16 15 14 12 12 11 11 9 8 8 8 8 8 9 11 14
Wind_Direction
18 47 264 240 208 214 240 233 269 283 329 45 59 61 63 114 141 170 182 176 161 147 145 149 146 145 147 160 174 185 193 196 172 159 182 213 241 251 261 264 269 281 285 286
14 312 258 237 204 202 196 164 280 298 349 42 51 8 305 255 226 215 200 184 164 157 170 186 179 180 182 188 193 195 199 191 186 179 180 192 218 254 270 287 295 289 289 290
230 264 295 48 110 119 124 160 206 277 345 19 38 343 319 313 328 311 205 178 173 183 192 203 204 207 208 210 207 202 200 196 198 195 151 83 16 336 315 305 300 295 298 292
263 278 310 54 46 132 226 237 229 232 39 316 22 288 291 314 323 305 226 184 189 201 208 214 216 220 223 227 220 209 201 195 194 178 183 195 220 260 264 276 284 296 296 295
298 304 330 328 285 193 210 65 61 62 143 40 23 152 289 331 302 264 227 208 207 213 215 218 220 224 231 234 224 209 193 194 181 176 182 187 212 232 264 283 292 298 301 299
275 307 291 262 333 28 94 66 48 47 66 69 308 222 285 266 243 251 235 223 219 221 226 232 238 242 251 244 220 200 192 197 182 182 181 185 206 233 272 294 302 306 307 304
336 334 330 310 4 7 72 73 20 1 8 268 285 234 253 255 245 232 231 233 235 241 248 258 266 266 261 248 229 209 197 202 195 192 192 196 206 221 247 273 289 302 307 308
341 309 303 330 259 239 181 136 155 213 237 279 320 242 255 282 304 289 284 320 354 343 331 320 313 304 289 269 245 221 209 211 204 204 207 206 210 219 239 254 267 282 290 295
187 264 297 327 309 184 144 154 161 141 174 263 287 288 310 355 1 11 23 30 21 11 6 358 352 347 338 328 307 264 236 234 225 219 214 218 222 227 241 255 261 273 284 298
171 240 294 318 3 26 120 138 98 120 163 249 285 297 323 339 347 15 33 36 31 28 26 22 18 13 10 7 2 357 333 289 269 248 235 235 233 234 240 250 264 274 289 303
127 183 303 351 12 336 29 73 90 108 156 174 249 277 15 354 11 39 38 32 27 26 25 22 20 17 17 17 15 8 355 335 313 286 263 252 248 243 243 247 256 265 281 300
118 126 293 295 280 277 248 131 136 118 262 193 207 245 38 40 35 39 33 25 21 19 15 13 12 13 14 13 8 3 354 342 323 300 277 260 253 246 244 247 251 256 272 291
145 112 25 343 336 348 39 153 146 136 146 181 194 205 51 36 32 25 19 10 7 7 7 6 6 6 2 358 355 352 349 340 330 314 289 270 255 244 242 243 245 247 259 284
122 128 172 215 233 250 296 304 215 144 186 229 222 150 21 13 10 1 357 352 353 357 357 355 354 351 347 343 341 339 340 340 336 328 309 284 266 249 241 236 234 236 241 261
107 187 225 241 253 281 318 346 18 78 232 212 96 93 14 354 348 340 337 337 343 348 348 346 341 337 335 334 332 330 331 333 335 332 326 308 286 261 245 233 226 225 225 232
70 190 218 292 296 220 64 23 38 41 27 61 85 72 340 322 332 334 329 328 330 334 334 332 328 324 322 321 319 318 319 319 322 326 329 327 312 282 253 237 223 214 214 214
54 120 120 280 312 71 37 1 60 79 47 47 54 318 316 324 325 318 310 305 302 305 309 309 307 303 301 300 302 301 301 305 309 310 316 326 326 308 277 247 223 212 207 198
117 106 122 298 358 275 113 57 95 116 104 77 1 296 295 288 287 284 278 276 277 282 293 298 298 296 293 293 292 290 290 292 295 299 303 311 320 320 303 263 232 216 200 194
107 123 94 72 6 129 137 31 359 301 202 209 301 299 296 292 291 279 275 266 263 276 286 290 289 288 287 286 286 286 285 285 286 287 290 297 305 313 313 289 249 222 201 193
46 68 91 70 316 302 34 333 321 278 230 236 281 293 297 307 304 293 277 279 284 290 293 293 292 289 286 283 281 278 279 279 278 278 278 282 288 297 305 304 272 228 206 198
6 15 43 26 325 58 320 316 356 28 296 299 293 289 290 284 279 287 289 287 285 287 290 290 291 290 286 285 282 277 276 273 271 271 272 276 277 284 293 305 292 238 210 196
33 19 15 15 7 328 318 7 31 271 273 282 289 290 290 289 288 290 291 288 285 284 284 283 283 284 285 284 281 280 278 275 272 269 268 269 271 279 294 304 305 261 218 197
57 41 142 126 213 241 257 244 252 266 280 286 288 289 291 293 294 294 292 289 286 284 284 281 277 280 279 274 270 273 276 276 273 270 268 267 269 269 273 286 305 288 232 202
4 3 94 65 274 273 274 269 271 278 283 290 291 293 295 295 296 297 295 292 288 285 284 282 279 279 279 273 268 266 270 271 266 264 266 265 265 266 267 271 286 290 259 213
338 36 46 303 282 291 282 277 285 294 295 295 295 294 292 292 295 295 296 294 292 290 287 283 281 281 278 273 268 268 268 264 260 259 261 262 259 258 262 264 268 275 267 239
276 151 159 258 259 264 282 290 297 300 298 298 300 301 293 290 295 297 297 296 295 294 292 289 286 283 281 276 270 264 261 258 256 259 259 256 252 252 253 262 281 270 262 249
Height
1504 1508 1511 1508 1506 1506 1508 1511 1512 1505 1497 1499 1500 1500 1497 1495 1495 1496 1496 1498 1500 1502 1505 1507 1509 1510 1511 1513 1514 1515 1516 1517 1517 1517 1518 1517 1517 1516 1515 1513 1511 1509 1506 1504
1509 1510 1502 1500 1501 1503 1506 1510 1509 1504 1498 1499 1501 1501 1498 1496 1496 1495 1495 1496 1499 1502 1505 1507 1508 1509 1510 1511 1512 1513 1514 1515 1516 1516 1516 1515 1514 1512 1511 1509 1506 1504 1501 1498
1509 1504 1497 1497 1500 1503 1505 1507 1506 1506 1503 1501 1503 1508 1503 1498 1496 1495 1495 1497 1499 1502 1504 1505 1506 1507 1508 1509 1510 1511 1512 1513 1514 1514 1513 1512 1510 1508 1506 1504 1501 1499 1496 1492
1506 1500 1497 1498 1500 1501 1508 1500 1501 1503 1511 1517 1512 1525 1509 1503 1500 1497 1496 1496 1498 1501 1502 1503 1504 1505 1506 1507 1509 1509 1510 1511 1511 1511 1510 1508 1506 1504 1502 1498 1495 1493 1489 1486
1506 1500 1499 1500 1498 1497 1501 1498 1503 1507 1511 1519 1518 1525 1517 1505 1502 1498 1496 1496 1497 1499 1500 1501 1502 1503 1504 1505 1506 1507 1507 1508 1508 1507 1506 1504 1502 1499 1497 1494 1490 1487 1484 1480
1503 1498 1497 1497 1495 1495 1497 1504 1511 1517 1523 1531 1521 1526 1523 1510 1501 1497 1495 1495 1495 1497 1498 1499 1500 1501 1502 1503 1504 1504 1504 1504 1504 1503 1502 1500 1497 1495 1492 1489 1485 1481 1478 1474
1509 1502 1497 1495 1498 1498 1502 1518 1537 1538 1543 1538 1523 1525 1522 1500 1495 1494 1492 1492 1493 1495 1497 1497 1498 1498 1499 1500 1500 1501 1501 1501 1500 1499 1498 1495 1493 1490 1487 1484 1480 1476 1472 1469
1520 1521 1502 1497 1499 1503 1503 1515 1536 1545 1548 1539 1526 1525 1510 1496 1494 1493 1493 1493 1495 1496 1496 1496 1496 1496 1496 1496 1497 1497 1497 1497 1496 1495 1494 1491 1489 1486 1483 1480 1476 1472 1469 1465
1520 1518 1500 1497 1496 1498 1507 1513 1515 1531 1535 1541 1533 1518 1504 1496 1496 1497 1497 1496 1497 1496 1495 1495 1493 1493 1493 1493 1493 1493 1493 1493 1493 1492 1490 1487 1485 1482 1479 1476 1473 1469 1466 1462
1508 1516 1505 1500 1497 1498 1501 1510 1523 1532 1541 1545 1533 1525 1526 1515 1511 1507 1505 1503 1501 1498 1496 1494 1492 1490 1490 1489 1489 1489 1489 1489 1488 1487 1486 1483 1481 1479 1476 1473 1470 1466 1463 1460
1505 1517 1513 1508 1507 1508 1506 1512 1523 1532 1534 1542 1543 1536 1527 1524 1519 1515 1512 1509 1506 1502 1498 1496 1494 1492 1490 1488 1487 1486 1486 1485 1484 1483 1481 1479 1477 1475 1473 1470 1467 1463 1460 1457
1509 1519 1523 1515 1506 1504 1504 1508 1519 1528 1531 1536 1540 1539 1526 1524 1521 1518 1516 1512 1509 1505 1502 1499 1496 1492 1489 1488 1486 1485 1483 1481 1480 1478 1476 1474 1472 1471 1469 1466 1463 1460 1458 1455
1509 1518 1529 1526 1520 1509 1507 1508 1512 1520 1529 1536 1539 1535 1526 1524 1522 1520 1518 1514 1510 1506 1502 1499 1495 1492 1490 1487 1485 1483 1480 1477 1475 1472 1470 1468 1466 1465 1464 1462 1460 1457 1454 1452
1502 1515 1523 1527 1522 1512 1510 1509 1510 1521 1528 1530 1526 1525 1528 1526 1524 1521 1518 1515 1511 1507 1503 1499 1496 1492 1490 1487 1483 1480 1476 1473 1470 1467 1464 1461 1459 1458 1457 1457 1455 1453 1451 1449
1502 1512 1512 1512 1508 1508 1510 1512 1513 1516 1519 1524 1523 1527 1532 1529 1526 1523 1519 1514 1510 1505 1502 1498 1495 1491 1487 1483 1480 1476 1472 1469 1465 1462 1458 1454 1451 1450 1450 1450 1450 1449 1447 1446
1505 1509 1511 1511 1506 1508 1513 1516 1517 1522 1524 1524 1527 1531 1531 1528 1525 1521 1517 1512 1507 1503 1499 1496 1492 1489 1485 1481 1477 1473 1469 1465 1461 1457 1453 1448 1444 1442 1441 1443 1444 1443 1442 1442
1510 1513 1518 1520 1513 1509 1523 1527 1525 1529 1531 1530 1531 1534 1529 1525 1522 1518 1513 1508 1504 1500 1497 1493 1490 1486 1482 1478 1474 1470 1465 1461 1457 1453 1448 1444 1439 1435 1433 1434 1436 1437 1437 1437
1513 1517 1523 1524 1517 1524 1536 1530 1528 1531 1532 1532 1531 1530 1527 1523 1518 1514 1510 1505 1501 1498 1494 1490 1485 1481 1477 1473 1468 1464 1460 1456 1452 1447 1443 1439 1435 1430 1427 1426 1428 1430 1431 1432
1511 1516 1525 1529 1526 1528 1532 1530 1530 1530 1531 1532 1530 1526 1522 1517 1513 1509 1506 1502 1498 1494 1489 1484 1478 1473 1468 1464 1460 1456 1452 1449 1445 1441 1437 1434 1430 1425 1422 1419 1419 1421 1424 1426
1515 1517 1525 1527 1526 1529 1539 1534 1530 1530 1529 1530 1527 1523 1518 1514 1510 1502 1500 1496 1491 1486 1481 1476 1470 1465 1459 1455 1452 1447 1443 1440 1437 1434 1431 1427 1424 1420 1416 1413 1412 1412 1415 1419
1527 1528 1531 1532 1531 1537 1541 1535 1530 1538 1536 1528 1524 1519 1514 1510 1505 1496 1491 1487 1483 1478 1473 1468 1462 1455 1450 1446 1442 1437 1433 1430 1428 1425 1423 1420 1417 1414 1410 1407 1404 1403 1405 1410
1536 1537 1537 1538 1538 1542 1539 1536 1538 1538 1529 1524 1518 1514 1508 1502 1495 1489 1483 1477 1473 1468 1463 1458 1452 1445 1441 1437 1432 1427 1423 1420 1418 1416 1413 1411 1409 1407 1404 1400 1397 1395 1396 1400
1541 1543 1540 1542 1544 1541 1537 1535 1533 1529 1524 1519 1514 1508 1502 1495 1487 1481 1474 1468 1462 1457 1451 1446 1440 1433 1429 1426 1422 1417 1413 1411 1408 1406 1404 1403 1401 1399 1397 1394 1391 1389 1387 1389
1543 1541 1542 1542 1540 1538 1534 1531 1528 1525 1520 1514 1508 1502 1496 1488 1480 1472 1465 1458 1451 1445 1440 1434 1428 1421 1416 1413 1410 1406 1403 1401 1398 1396 1395 1394 1393 1391 1390 1388 1385 1383 1380 1382
1545 1543 1544 1543 1539 1534 1529 1527 1523 1518 1513 1507 1501 1495 1489 1481 1471 1464 1455 1447 1440 1433 1427 1421 1415 1408 1403 1400 1397 1394 1392 1390 1388 1387 1386 1386 1385 1384 1382 1381 1379 1376 1374 1375
1543 1544 1544 1543 1536 1533 1526 1522 1517 1512 1506 1500 1493 1484 1478 1473 1462 1453 1444 1436 1428 1420 1414 1407 1401 1395 1389 1386 1382 1380 1379 1379 1377 1376 1376 1377 1377 1376 1375 1373 1372 1369 1368 1369